EW9996 Weather Reports


time (UTC)temp
C
wind
direction
speed
KPH
gust
KPH
rain 1hr
cm
rain 24hr
cm
rain mn
cm
humidity
%
barometer
mb
20260509111546 9 0 0.0 0.0 0.03 0.03 0.03 86 1009.4
20260509110050 9 0 0.0 0.0 0.03 0.03 0.03 85 1009.6
20260509104549 8 0 0.0 0.0 0.03 0.03 0.03 85 1009.7
20260509103052 8 0 0.0 0.0 0.00 0.00 0.00 86 1009.6
20260509101553 8 0 0.0 0.0 0.00 0.00 0.00 86 1009.3
20260509100049 8 0 0.0 0.0 0.00 0.00 0.00 86 1009.3
20260509094550 8 0 0.0 0.0 0.00 0.00 0.00 86 1009.1
20260509093054 8 0 0.0 0.0 0.00 0.00 0.00 86 1009.2
20260509091555 9 0 0.0 0.0 0.00 0.00 0.00 85 1009.1
20260509090052 8 0 0.0 0.0 0.00 0.00 0.00 86 1009.0
20260509084550 8 0 0.0 0.0 0.00 0.00 0.00 86 1009.1
20260509083052 8 0 0.0 0.0 0.00 0.00 0.00 86 1009.2
20260509081551 8 0 0.0 0.0 0.00 0.00 0.00 85 1008.8
20260509080052 8 0 0.0 0.0 0.00 0.00 0.00 85 1008.8
20260509074603 8 0 0.0 0.0 0.00 0.00 0.00 85 1009.0
20260509073047 9 0 0.0 0.0 0.00 0.00 0.00 84 1008.9
20260509071545 9 0 0.0 0.0 0.00 0.00 0.00 84 1009.0
20260509070051 9 0 0.0 0.0 0.00 0.00 0.00 84 1009.0
20260509064558 9 0 0.0 0.0 0.00 0.00 0.00 83 1009.5
20260509063049 9 0 0.0 0.0 0.00 0.00 0.00 82 1009.7
20260509061559 10 0 0.0 0.0 0.00 0.00 0.00 81 1009.8
20260509060053 10 0 0.0 0.0 0.00 0.00 0.00 81 1010.0
20260509054553 10 0 0.0 0.0 0.00 0.00 0.00 78 1010.3
20260509053049 10 0 0.0 0.0 0.00 0.00 0.00 78 1010.3
20260509051553 10 0 0.0 0.0 0.00 0.00 0.00 79 1010.6
20260509050056 10 0 0.0 0.0 0.00 0.00 0.00 78 1010.8
20260509044550 10 0 0.0 0.0 0.00 0.00 0.00 78 1010.7
20260509043056 10 0 0.0 0.0 0.00 0.00 0.00 78 1011.3
20260509041553 10 0 0.0 0.0 0.00 0.00 0.00 77 1011.3
20260509040054 10 0 0.0 0.0 0.00 0.00 0.00 76 1011.0
20260509034553 10 0 0.0 0.0 0.00 0.00 0.00 76 1011.0
20260509033054 10 0 0.0 0.0 0.00 0.00 0.00 76 1010.8
20260509031551 10 0 0.0 0.0 0.00 0.00 0.00 76 1010.9
20260509030053 11 0 0.0 0.0 0.00 0.00 0.00 76 1010.8
20260509024548 10 0 0.0 0.0 0.00 0.00 0.00 75 1010.4
20260509023049 10 0 0.0 0.0 0.00 0.00 0.00 74 1010.6
20260509021549 11 0 0.0 0.0 0.00 0.00 0.00 74 1010.4
20260509020051 11 0 0.0 0.0 0.00 0.00 0.00 72 1010.8
20260509014546 11 0 0.0 0.0 0.00 0.00 0.00 71 1010.9
20260509013053 11 0 0.0 0.0 0.00 0.00 0.00 69 1010.7
20260509011550 11 0 0.0 0.0 0.00 0.00 0.00 67 1010.8
20260509010052 12 0 0.0 0.0 0.00 0.00 0.00 66 1010.5
20260509004606 12 0 0.0 0.0 0.00 0.00 0.00 64 1010.2
20260509003051 12 0 0.0 0.0 0.00 0.00 0.00 62 1010.1
20260509001554 13 0 0.0 0.0 0.00 0.00 0.00 59 1009.9
20260509000052 13 0 0.0 0.0 0.00 0.00 0.00 59 1009.9
20260508234551 13 0 0.0 0.0 0.00 0.00 0.00 58 1010.1
20260508233047 13 0 0.0 0.0 0.00 0.00 0.00 57 1010.2
20260508231555 14 0 0.0 0.0 0.00 0.00 0.00 57 1010.2
20260508230055 14 0 0.0 0.0 0.00 0.00 0.00 54 1009.9
20260508224552 14 0 0.0 0.0 0.00 0.00 0.00 56 1009.8
20260508223052 14 0 0.0 0.0 0.00 0.00 0.00 57 1009.8
20260508221552 14 0 0.0 0.0 0.00 0.00 0.00 55 1010.0
20260508220052 14 0 0.0 0.0 0.00 0.00 0.00 56 1010.0
20260508214604 14 0 0.0 0.0 0.00 0.00 0.00 55 1010.2
20260508213049 15 0 0.0 0.0 0.00 0.00 0.00 55 1010.2
20260508211555 15 0 0.0 0.0 0.00 0.00 0.00 55 1010.1
20260508210055 15 0 0.0 0.0 0.00 0.00 0.00 55 1010.0
20260508204549 15 0 0.0 0.0 0.00 0.00 0.00 54 1009.9
20260508203051 15 0 0.0 0.0 0.00 0.00 0.00 58 1009.8
20260508201553 14 0 0.0 0.0 0.00 0.00 0.00 61 1010.1
20260508200052 13 0 0.0 0.0 0.00 0.00 0.00 66 1010.5
20260508194551 13 0 0.0 0.0 0.00 0.00 0.00 64 1010.7
20260508193102 16 0 0.0 0.0 0.00 0.00 0.00 47 1010.4
20260508191555 16 0 0.0 1.6 0.00 0.00 0.00 47 1010.1
20260508184555 16 0 0.0 0.0 0.00 0.00 0.00 45 1010.4
20260508183108 16 0 0.0 0.0 0.00 0.00 0.00 43 1010.4
20260508181550 16 0 0.0 0.0 0.00 0.00 0.00 41 1010.2
20260508180059 17 0 0.0 0.0 0.00 0.00 0.00 40 1010.3
20260508174600 17 0 0.0 0.0 0.00 0.00 0.00 38 1010.7
20260508173050 16 0 0.0 0.0 0.00 0.00 0.00 39 1010.7
20260508171548 17 0 0.0 0.0 0.00 0.00 0.00 42 1010.9
20260508170049 16 0 0.0 0.0 0.00 0.00 0.00 42 1011.2
20260508164552 16 0 0.0 0.0 0.00 0.00 0.00 42 1011.2
20260508163047 15 0 0.0 0.0 0.00 0.00 0.00 44 1011.3
20260508161554 15 0 0.0 0.0 0.00 0.00 0.00 44 1011.5
20260508160054 15 0 0.0 1.6 0.00 0.00 0.00 47 1011.4
20260508154549 15 0 0.0 0.0 0.00 0.00 0.00 45 1011.5
20260508153056 15 0 0.0 0.0 0.00 0.00 0.00 44 1011.7
20260508151552 14 0 0.0 0.0 0.00 0.00 0.00 44 1011.7
20260508150051 14 0 0.0 0.0 0.00 0.00 0.00 46 1011.7
20260508144553 13 0 0.0 0.0 0.00 0.00 0.00 52 1011.7
20260508143054 12 0 0.0 0.0 0.00 0.00 0.00 50 1011.8
20260508141603 12 0 0.0 0.0 0.00 0.00 0.00 52 1012.0
20260508140052 12 0 0.0 0.0 0.00 0.00 0.00 51 1011.9
20260508134552 12 0 0.0 0.0 0.00 0.00 0.00 52 1011.9
20260508133052 11 0 0.0 0.0 0.00 0.00 0.00 56 1012.2
20260508131604 10 0 0.0 0.0 0.00 0.00 0.00 58 1012.3
20260508130049 8 0 0.0 0.0 0.00 0.00 0.00 69 1012.3
20260508124552 7 0 0.0 0.0 0.00 0.00 0.00 73 1012.4
20260508123111 6 0 0.0 0.0 0.00 0.00 0.00 75 1012.4
20260508121601 5 0 0.0 0.0 0.00 0.00 0.00 77 1012.6
20260508120107 5 0 0.0 0.0 0.00 0.00 0.00 80 1012.6
20260508114559 4 0 0.0 0.0 0.00 0.00 0.00 81 1012.5
20260508113107 3 0 0.0 0.0 0.00 0.00 0.00 82 1012.7